Overview Statistics Trail Chart Weather Telemetry Raw packets
 

This is the latest recevied weather packets stored in our database for station/object EA7URS-13. If no packets are shown the sender has not sent any weather packets the latest 10 day(s).

<< 44 45 46 47 48 49 50 >>
Time Temp. Humidity Pressure Rain* Wind** Luminosity Snow
1788358822 37.78° C 31% 1009.9 hPa 0 mm - 532 W/m² -
1788358521 37.78° C 31% 1009.9 hPa 0 mm - 532 W/m² -
1788358220 37.78° C 32% 1010 hPa 0 mm - 550 W/m² -
1788357919 37.78° C 32% 1010 hPa 0 mm - 550 W/m² -
1788357618 36.67° C 32% 1010.2 hPa 0 mm - 570 W/m² -
1788357316 36.67° C 32% 1010.2 hPa 0 mm - 570 W/m² -
1788357015 36.67° C 34% 1010.2 hPa 0 mm - 589 W/m² -
1788356713 36.67° C 34% 1010.2 hPa 0 mm - 589 W/m² -
1788356412 36.67° C 34% 1010.2 hPa 0 mm - 609 W/m² -
1788356111 36.67° C 34% 1010.2 hPa 0 mm - 609 W/m² -
1788355810 37.22° C 33% 1010.5 hPa 0 mm - 623 W/m² -
1788355508 37.22° C 33% 1010.5 hPa 0 mm - 623 W/m² -
1788355208 37.22° C 34% 1010.7 hPa 0 mm - 634 W/m² -
1788354906 37.22° C 34% 1010.7 hPa 0 mm - 634 W/m² -
1788354605 35.56° C 37% 1010.4 hPa 0 mm - 647 W/m² -
1788354304 35.56° C 37% 1010.4 hPa 0 mm - 647 W/m² -
1788354003 35.56° C 38% 1010.4 hPa 0 mm - 657 W/m² -
1788353702 35.56° C 38% 1010.4 hPa 0 mm - 657 W/m² -
1788353400 35.56° C 39% 1010.6 hPa 0 mm - 663 W/m² -
1788353099 35.56° C 39% 1010.6 hPa 0 mm - 663 W/m² -
1788352798 35° C 40% 1010.8 hPa 0 mm - 667 W/m² -
1788352497 35° C 40% 1010.8 hPa 0 mm - 667 W/m² -
1788352196 33.89° C 41% 1010.9 hPa 0 mm - 670 W/m² -
1788351895 33.89° C 41% 1010.9 hPa 0 mm - 670 W/m² -
1788351593 33.89° C 41% 1010.9 hPa 0 mm - 672 W/m² -

* Rain latest hour (hover to see other rain measurements)
** Current wind speed in m/s (hover to see current wind gust speed)